Weather in Nizhneye Pronge

Russia / Khabarovsk Krai     52°51′21″N   141°12′05″E
temp.,
°C
wind,
m/s
gust,
m/s
humid.,
%
clouds,
%
prec.,
mm/h
press.,
hPa
HPBL,
m
21 january, fri
fri2101:00−18nw348981 0.0 102437
04:00−18nw2291100 0.0 102532
07:00−17nw228998 0.0 102535
10:00−16nnw128598 0.0 102575
13:00−13n237686 0.0 1024226
16:00−15nne229062 0.0 102417
19:00−22w119911 0.0 102610
22:00−22w119217 0.0 102510
22 january, sat
sat2201:00−23wsw219562 0.0 102510
04:00−23sw11965 0.0 102410
07:00−23sw11965 0.0 102510
10:00−21sw11935 0.0 102518
13:00−16ese119026 0.0 102499
16:00−18sse21985 0.0 102311
19:00−21wsw119818 0.0 102310
22:00−22wsw21946 0.0 102310
23 january, sun
sun2301:00−23sw11935 0.0 102210
04:00−23wsw11935 0.0 102210
07:00−23sw11945 0.0 102210
10:00−20sw11913 0.0 102122
13:00−15nnw04795 0.0 1020323
16:00−16nnw01925 0.0 101911
19:00−21wsw229215 0.0 101913
22:00−21wsw22895 0.0 101817
24 january, mon
mon2401:00−21wsw22905 0.0 101715
04:00−21w22895 0.0 101715
07:00−22wsw229129 0.0 101613
10:00−19wsw22876 0.0 101627
13:00−13nw2671100 0.0 1016386
16:00−15wnw33825 0.0 101633
19:00−17wnw348399 0.0 101753
22:00−21w33917 0.0 101819
25 january, tue
tue2501:00−22w32925 0.0 101816
04:00−23w22935 0.0 101913
07:00−24wsw21945 0.0 102010
10:00−22sw11935 0.0 102020
13:00−18ese128826 0.0 1020237
16:00−20se229849 0.0 102015
19:00−23wsw119932 0.0 10209
22:00−24wsw119715 0.0 10219